Year,Month,Day,Hour,Minute,Value (Times are PST for temperature in C)
2012,08,15,00,00,16.50
2012,08,15,00,01,16.50
2012,08,15,00,02,16.60
2012,08,15,00,03,16.50
2012,08,15,00,04,16.50
2012,08,15,00,05,16.50
2012,08,15,00,06,16.50
2012,08,15,00,07,16.50
2012,08,15,00,08,16.50
2012,08,15,00,09,16.50
2012,08,15,00,10,16.60
2012,08,15,00,11,16.60
2012,08,15,00,12,16.60
2012,08,15,00,13,16.60
2012,08,15,00,14,16.60
2012,08,15,00,15,16.60
2012,08,15,00,16,16.60
2012,08,15,00,17,16.60
2012,08,15,00,18,16.60
2012,08,15,00,19,16.60
2012,08,15,00,20,16.70
2012,08,15,00,21,16.70
2012,08,15,00,22,16.70
2012,08,15,00,23,16.70
2012,08,15,00,24,16.70
2012,08,15,00,25,16.70
2012,08,15,00,26,16.70
2012,08,15,00,27,16.70
2012,08,15,00,28,16.60
2012,08,15,00,29,16.60
2012,08,15,00,30,16.60
2012,08,15,00,31,16.60
2012,08,15,00,32,16.60
2012,08,15,00,33,16.60
2012,08,15,00,34,16.50
2012,08,15,00,35,16.50
2012,08,15,00,36,16.50
2012,08,15,00,37,16.50
2012,08,15,00,38,16.50
2012,08,15,00,39,16.50
2012,08,15,00,40,16.50
2012,08,15,00,41,16.50
2012,08,15,00,42,16.50
2012,08,15,00,43,16.60
2012,08,15,00,44,16.50
2012,08,15,00,45,16.60
2012,08,15,00,46,16.60
2012,08,15,00,47,16.60
2012,08,15,00,48,16.60
2012,08,15,00,49,16.60
2012,08,15,00,50,16.50
2012,08,15,00,51,16.50
2012,08,15,00,52,16.50
2012,08,15,00,53,16.50
2012,08,15,00,54,16.50
2012,08,15,00,55,16.50
2012,08,15,00,56,16.50
2012,08,15,00,57,16.60
2012,08,15,00,58,16.60
2012,08,15,00,59,16.70
2012,08,15,01,00,16.70
2012,08,15,01,01,16.80
2012,08,15,01,02,16.90
2012,08,15,01,03,17.00
2012,08,15,01,04,17.10
2012,08,15,01,05,17.20
2012,08,15,01,06,17.30
2012,08,15,01,07,17.40
2012,08,15,01,08,17.40
2012,08,15,01,09,17.50
2012,08,15,01,10,17.60
2012,08,15,01,11,17.60
2012,08,15,01,12,17.70
2012,08,15,01,13,17.70
2012,08,15,01,14,17.80
2012,08,15,01,15,17.80
2012,08,15,01,16,17.90
2012,08,15,01,17,17.90
2012,08,15,01,18,17.90
2012,08,15,01,19,17.90
2012,08,15,01,20,17.90
2012,08,15,01,21,17.90
2012,08,15,01,22,17.90
2012,08,15,01,23,17.80
2012,08,15,01,24,17.80
2012,08,15,01,25,17.80
2012,08,15,01,26,17.80
2012,08,15,01,27,17.80
2012,08,15,01,28,17.80
2012,08,15,01,29,17.80
2012,08,15,01,30,17.80
2012,08,15,01,31,17.80
2012,08,15,01,32,17.80
2012,08,15,01,33,18.00
2012,08,15,01,34,18.10
2012,08,15,01,35,18.20
2012,08,15,01,36,18.30
2012,08,15,01,37,18.30
2012,08,15,01,38,18.30
2012,08,15,01,39,18.40
2012,08,15,01,40,18.40
2012,08,15,01,41,18.50
2012,08,15,01,42,18.50
2012,08,15,01,43,18.50
2012,08,15,01,44,18.50
2012,08,15,01,45,18.50
2012,08,15,01,46,18.50
2012,08,15,01,47,18.50
2012,08,15,01,48,18.50
2012,08,15,01,49,18.50
2012,08,15,01,50,18.50
2012,08,15,01,51,18.50
2012,08,15,01,52,18.50
2012,08,15,01,53,18.50
2012,08,15,01,54,18.50
2012,08,15,01,55,18.50
2012,08,15,01,56,18.50
2012,08,15,01,57,18.50
2012,08,15,01,58,18.50
2012,08,15,01,59,18.50
2012,08,15,02,00,18.50
2012,08,15,02,01,18.50
2012,08,15,02,02,18.50
2012,08,15,02,03,18.50
2012,08,15,02,04,18.50
2012,08,15,02,05,18.50
2012,08,15,02,06,18.50
2012,08,15,02,07,18.50
2012,08,15,02,08,18.40
2012,08,15,02,09,18.50
2012,08,15,02,10,18.50
2012,08,15,02,11,18.50
2012,08,15,02,12,18.60
2012,08,15,02,13,18.60
2012,08,15,02,14,18.60
2012,08,15,02,15,18.60
2012,08,15,02,16,18.70
2012,08,15,02,17,18.70
2012,08,15,02,18,18.70
2012,08,15,02,19,18.80
2012,08,15,02,20,18.80
2012,08,15,02,21,18.80
2012,08,15,02,22,18.90
2012,08,15,02,23,18.90
2012,08,15,02,24,18.90
2012,08,15,02,25,18.90
2012,08,15,02,26,18.90
2012,08,15,02,27,18.90
2012,08,15,02,28,18.90
2012,08,15,02,29,18.90
2012,08,15,02,30,18.90
2012,08,15,02,31,18.90
2012,08,15,02,32,19.00
2012,08,15,02,33,19.00
2012,08,15,02,34,19.00
2012,08,15,02,35,19.00
2012,08,15,02,36,19.00
2012,08,15,02,37,19.00
2012,08,15,02,38,19.00
2012,08,15,02,39,19.00
2012,08,15,02,40,18.90
2012,08,15,02,41,18.90
2012,08,15,02,42,18.90
2012,08,15,02,43,18.90
2012,08,15,02,44,18.90
2012,08,15,02,45,18.90
2012,08,15,02,46,18.90
2012,08,15,02,47,18.90
2012,08,15,02,48,18.90
2012,08,15,02,49,18.90
2012,08,15,02,50,18.90
2012,08,15,02,51,18.90
2012,08,15,02,52,18.90
2012,08,15,02,53,18.90
2012,08,15,02,54,18.90
2012,08,15,02,55,18.90
2012,08,15,02,56,18.90
2012,08,15,02,57,18.90
2012,08,15,02,58,18.90
2012,08,15,02,59,18.90
2012,08,15,03,00,18.90
2012,08,15,03,01,18.90
2012,08,15,03,02,18.90
2012,08,15,03,03,18.90
2012,08,15,03,04,18.90
2012,08,15,03,05,18.90
2012,08,15,03,06,18.90
2012,08,15,03,07,18.90
2012,08,15,03,08,18.90
2012,08,15,03,09,18.90
2012,08,15,03,10,18.90
2012,08,15,03,11,18.90
2012,08,15,03,12,18.90
2012,08,15,03,13,18.90
2012,08,15,03,14,18.90
2012,08,15,03,15,18.90
2012,08,15,03,16,18.90
2012,08,15,03,17,18.90
2012,08,15,03,18,18.90
2012,08,15,03,19,18.90
2012,08,15,03,20,18.90
2012,08,15,03,21,18.90
2012,08,15,03,22,18.90
2012,08,15,03,23,18.90
2012,08,15,03,24,18.90
2012,08,15,03,25,18.90
2012,08,15,03,26,18.90
2012,08,15,03,27,18.90
2012,08,15,03,28,18.90
2012,08,15,03,29,18.90
2012,08,15,03,30,18.80
2012,08,15,03,31,18.80
2012,08,15,03,32,18.80
2012,08,15,03,33,18.80
2012,08,15,03,34,18.80
2012,08,15,03,35,18.80
2012,08,15,03,36,18.70
2012,08,15,03,37,18.70
2012,08,15,03,38,18.70
2012,08,15,03,39,18.70
2012,08,15,03,40,18.70
2012,08,15,03,41,18.60
2012,08,15,03,42,18.60
2012,08,15,03,43,18.60
2012,08,15,03,44,18.60
2012,08,15,03,45,18.60
2012,08,15,03,46,18.60
2012,08,15,03,47,18.60
2012,08,15,03,48,18.60
2012,08,15,03,49,18.60
2012,08,15,03,50,18.60
2012,08,15,03,51,18.60
2012,08,15,03,52,18.60
2012,08,15,03,53,18.60
2012,08,15,03,54,18.60
2012,08,15,03,55,18.60
2012,08,15,03,56,18.60
2012,08,15,03,57,18.60
2012,08,15,03,58,18.60
2012,08,15,03,59,18.60
2012,08,15,04,00,18.60
2012,08,15,04,01,18.60
2012,08,15,04,02,18.60
2012,08,15,04,03,18.60
2012,08,15,04,04,18.60
2012,08,15,04,05,18.60
2012,08,15,04,06,18.60
2012,08,15,04,07,18.60
2012,08,15,04,08,18.60
2012,08,15,04,09,18.50
2012,08,15,04,10,18.50
2012,08,15,04,11,18.50
2012,08,15,04,12,18.50
2012,08,15,04,13,18.50
2012,08,15,04,14,18.50
2012,08,15,04,15,18.50
2012,08,15,04,16,18.50
2012,08,15,04,17,18.50
2012,08,15,04,18,18.50
2012,08,15,04,19,18.50
2012,08,15,04,20,18.50
2012,08,15,04,21,18.60
2012,08,15,04,22,18.60
2012,08,15,04,23,18.60
2012,08,15,04,24,18.60
2012,08,15,04,25,18.60
2012,08,15,04,26,18.60
2012,08,15,04,27,18.60
2012,08,15,04,28,18.60
2012,08,15,04,29,18.60
2012,08,15,04,30,18.50
2012,08,15,04,31,18.50
2012,08,15,04,32,18.50
2012,08,15,04,33,18.50
2012,08,15,04,34,18.40
2012,08,15,04,35,18.40
2012,08,15,04,36,18.40
2012,08,15,04,37,18.40
2012,08,15,04,38,18.40
2012,08,15,04,39,18.40
2012,08,15,04,40,18.40
2012,08,15,04,41,18.40
2012,08,15,04,42,18.40
2012,08,15,04,43,18.40
2012,08,15,04,44,18.30
2012,08,15,04,45,18.30
2012,08,15,04,46,18.40
2012,08,15,04,47,18.40
2012,08,15,04,48,18.40
2012,08,15,04,49,18.40
2012,08,15,04,50,18.40
2012,08,15,04,51,18.40
2012,08,15,04,52,18.40
2012,08,15,04,53,18.40
2012,08,15,04,54,18.50
2012,08,15,04,55,18.50
2012,08,15,04,56,18.50
2012,08,15,04,57,18.50
2012,08,15,04,58,18.50
2012,08,15,04,59,18.60
2012,08,15,05,00,18.60
2012,08,15,05,01,18.60
2012,08,15,05,02,18.60
2012,08,15,05,03,18.60
2012,08,15,05,04,18.60
2012,08,15,05,05,18.60
2012,08,15,05,06,18.60
2012,08,15,05,07,18.50
2012,08,15,05,08,18.50
2012,08,15,05,09,18.50
2012,08,15,05,10,18.50
2012,08,15,05,11,18.50
2012,08,15,05,12,18.50
2012,08,15,05,13,18.50
2012,08,15,05,14,18.50
2012,08,15,05,15,18.50
2012,08,15,05,16,18.50
2012,08,15,05,17,18.50
2012,08,15,05,18,18.50
2012,08,15,05,19,18.50
2012,08,15,05,20,18.50
2012,08,15,05,21,18.40
2012,08,15,05,22,18.40
2012,08,15,05,23,18.40
2012,08,15,05,24,18.40
2012,08,15,05,25,18.40
2012,08,15,05,26,18.40
2012,08,15,05,27,18.40
2012,08,15,05,28,18.40
2012,08,15,05,29,18.40
2012,08,15,05,30,18.40
2012,08,15,05,31,18.40
2012,08,15,05,32,18.30
2012,08,15,05,33,18.30
2012,08,15,05,34,18.30
2012,08,15,05,35,18.30
2012,08,15,05,36,18.20
2012,08,15,05,37,18.20
2012,08,15,05,38,18.20
2012,08,15,05,39,18.20
2012,08,15,05,40,18.20
2012,08,15,05,41,18.20
2012,08,15,05,42,18.20
2012,08,15,05,43,18.10
2012,08,15,05,44,18.10
2012,08,15,05,45,18.10
2012,08,15,05,46,18.10
2012,08,15,05,47,18.10
2012,08,15,05,48,18.10
2012,08,15,05,49,18.10
2012,08,15,05,50,18.10
2012,08,15,05,51,18.10
2012,08,15,05,52,18.10
2012,08,15,05,53,18.10
2012,08,15,05,54,18.10
2012,08,15,05,55,18.10
2012,08,15,05,56,18.20
2012,08,15,05,57,18.20
2012,08,15,05,58,18.20
2012,08,15,05,59,18.20
2012,08,15,06,00,18.20
2012,08,15,06,01,18.20
2012,08,15,06,02,18.20
2012,08,15,06,03,18.20
2012,08,15,06,04,18.20
2012,08,15,06,05,18.20
2012,08,15,06,06,18.20
2012,08,15,06,07,18.20
2012,08,15,06,08,18.20
2012,08,15,06,09,18.20
2012,08,15,06,10,18.20
2012,08,15,06,11,18.10
2012,08,15,06,12,18.10
2012,08,15,06,13,18.10
2012,08,15,06,14,18.10
2012,08,15,06,15,18.10
2012,08,15,06,16,18.00
2012,08,15,06,17,18.00
2012,08,15,06,18,18.00
2012,08,15,06,19,18.00
2012,08,15,06,20,18.00
2012,08,15,06,21,18.00
2012,08,15,06,22,18.10
2012,08,15,06,23,18.10
2012,08,15,06,24,18.10
2012,08,15,06,25,18.10
2012,08,15,06,26,18.10
2012,08,15,06,27,18.10
2012,08,15,06,28,18.10
2012,08,15,06,29,18.10
2012,08,15,06,30,18.10
2012,08,15,06,31,18.10
2012,08,15,06,32,18.10
2012,08,15,06,33,18.10
2012,08,15,06,34,18.10
2012,08,15,06,35,18.10
2012,08,15,06,36,18.10
2012,08,15,06,37,18.10
2012,08,15,06,38,18.20
2012,08,15,06,39,18.20
2012,08,15,06,40,18.20
2012,08,15,06,41,18.20
2012,08,15,06,42,18.20
2012,08,15,06,43,18.20
2012,08,15,06,44,18.30
2012,08,15,06,45,18.30
2012,08,15,06,46,18.30
2012,08,15,06,47,18.30
2012,08,15,06,48,18.30
2012,08,15,06,49,18.40
2012,08,15,06,50,18.40
2012,08,15,06,51,18.50
2012,08,15,06,52,18.60
2012,08,15,06,53,18.60
2012,08,15,06,54,18.70
2012,08,15,06,55,18.80
2012,08,15,06,56,18.80
2012,08,15,06,57,18.90
2012,08,15,06,58,18.90
2012,08,15,06,59,19.00
2012,08,15,07,00,19.00
2012,08,15,07,01,19.10
2012,08,15,07,02,19.10
2012,08,15,07,03,19.20
2012,08,15,07,04,19.30
2012,08,15,07,05,19.30
2012,08,15,07,06,19.30
2012,08,15,07,07,19.40
2012,08,15,07,08,19.50
2012,08,15,07,09,19.50
2012,08,15,07,10,19.50
2012,08,15,07,11,19.60
2012,08,15,07,12,19.70
2012,08,15,07,13,19.70
2012,08,15,07,14,19.80
2012,08,15,07,15,19.80
2012,08,15,07,16,19.80
2012,08,15,07,17,19.90
2012,08,15,07,18,19.90
2012,08,15,07,19,20.00
2012,08,15,07,20,20.00
2012,08,15,07,21,20.10
2012,08,15,07,22,20.20
2012,08,15,07,23,20.20
2012,08,15,07,24,20.20
2012,08,15,07,25,20.30
2012,08,15,07,26,20.30
2012,08,15,07,27,20.30
2012,08,15,07,28,20.40
2012,08,15,07,29,20.40
2012,08,15,07,30,20.40
2012,08,15,07,31,20.40
2012,08,15,07,32,20.40
2012,08,15,07,33,20.40
2012,08,15,07,34,20.50
2012,08,15,07,35,20.50
2012,08,15,07,36,20.60
2012,08,15,07,37,20.60
2012,08,15,07,38,20.60
2012,08,15,07,39,20.70
2012,08,15,07,40,20.70
2012,08,15,07,41,20.70
2012,08,15,07,42,20.70
2012,08,15,07,43,20.70
2012,08,15,07,44,20.70
2012,08,15,07,45,20.70
2012,08,15,07,46,20.70
2012,08,15,07,47,20.70
2012,08,15,07,48,20.70
2012,08,15,07,49,20.70
2012,08,15,07,50,20.70
2012,08,15,07,51,20.70
2012,08,15,07,52,20.70
2012,08,15,07,53,20.70
2012,08,15,07,54,20.80
2012,08,15,07,55,20.80
2012,08,15,07,56,20.80
2012,08,15,07,57,20.80
2012,08,15,07,58,20.80
2012,08,15,07,59,20.90
2012,08,15,08,00,20.90
2012,08,15,08,01,20.90
2012,08,15,08,02,20.90
2012,08,15,08,03,21.00
2012,08,15,08,04,21.00
2012,08,15,08,05,21.00
2012,08,15,08,06,21.10
2012,08,15,08,07,21.10
2012,08,15,08,08,21.10
2012,08,15,08,09,21.10
2012,08,15,08,10,21.20
2012,08,15,08,11,21.20
2012,08,15,08,12,21.20
2012,08,15,08,13,21.20
2012,08,15,08,14,21.20
2012,08,15,08,15,21.30
2012,08,15,08,16,21.30
2012,08,15,08,17,21.30
2012,08,15,08,18,21.30
2012,08,15,08,19,21.30
2012,08,15,08,20,21.30
2012,08,15,08,21,21.30
2012,08,15,08,22,21.30
2012,08,15,08,23,21.30
2012,08,15,08,24,21.30
2012,08,15,08,25,21.30
2012,08,15,08,26,21.30
2012,08,15,08,27,21.30
2012,08,15,08,28,21.30
2012,08,15,08,29,21.30
2012,08,15,08,30,21.30
2012,08,15,08,31,21.30
2012,08,15,08,32,21.40
2012,08,15,08,33,21.40
2012,08,15,08,34,21.50
2012,08,15,08,35,21.60
2012,08,15,08,36,21.60
2012,08,15,08,37,21.60
2012,08,15,08,38,21.60
2012,08,15,08,39,21.60
2012,08,15,08,40,21.60
2012,08,15,08,41,21.40
2012,08,15,08,42,21.40
2012,08,15,08,43,21.30
2012,08,15,08,44,21.30
2012,08,15,08,45,21.40
2012,08,15,08,46,21.50
2012,08,15,08,47,21.60
2012,08,15,08,48,21.70
2012,08,15,08,49,21.80
2012,08,15,08,50,21.80
2012,08,15,08,51,21.90
2012,08,15,08,52,21.90
2012,08,15,08,53,21.90
2012,08,15,08,54,21.90
2012,08,15,08,55,21.90
2012,08,15,08,56,22.00
2012,08,15,08,57,22.10
2012,08,15,08,58,22.10
2012,08,15,08,59,22.10
2012,08,15,09,00,22.10
2012,08,15,09,01,22.10
2012,08,15,09,02,22.10
2012,08,15,09,03,22.10
2012,08,15,09,04,22.10
2012,08,15,09,05,22.10
2012,08,15,09,06,22.10
2012,08,15,09,07,22.20
2012,08,15,09,08,22.20
2012,08,15,09,09,22.20
2012,08,15,09,10,22.30
2012,08,15,09,11,22.30
2012,08,15,09,12,22.30
2012,08,15,09,13,22.40
2012,08,15,09,14,22.40
2012,08,15,09,15,22.50
2012,08,15,09,16,22.60
2012,08,15,09,17,22.60
2012,08,15,09,18,22.60
2012,08,15,09,19,22.50
2012,08,15,09,20,22.50
2012,08,15,09,21,22.40
2012,08,15,09,22,22.40
2012,08,15,09,23,22.50
2012,08,15,09,24,22.50
2012,08,15,09,25,22.60
2012,08,15,09,26,22.70
2012,08,15,09,27,22.70
2012,08,15,09,28,22.70
2012,08,15,09,29,22.80
2012,08,15,09,30,22.80
2012,08,15,09,31,22.90
2012,08,15,09,32,22.90
2012,08,15,09,33,23.00
2012,08,15,09,34,23.00
2012,08,15,09,35,23.00
2012,08,15,09,36,23.00
2012,08,15,09,37,23.10
2012,08,15,09,38,23.00
2012,08,15,09,39,23.00
2012,08,15,09,40,23.00
2012,08,15,09,41,23.10
2012,08,15,09,42,23.10
2012,08,15,09,43,23.10
2012,08,15,09,44,23.20
2012,08,15,09,45,23.20
2012,08,15,09,46,23.30
2012,08,15,09,47,23.30
2012,08,15,09,48,23.40
2012,08,15,09,49,23.40
2012,08,15,09,50,23.40
2012,08,15,09,51,23.50
2012,08,15,09,52,23.60
2012,08,15,09,53,23.60
2012,08,15,09,54,23.60
2012,08,15,09,55,23.60
2012,08,15,09,56,23.70
2012,08,15,09,57,23.80
2012,08,15,09,58,23.80
2012,08,15,09,59,23.80
2012,08,15,10,00,23.80
2012,08,15,10,01,23.80
2012,08,15,10,02,23.80
2012,08,15,10,03,23.70
2012,08,15,10,04,23.70
2012,08,15,10,05,23.70
2012,08,15,10,06,23.80
2012,08,15,10,07,23.80
2012,08,15,10,08,23.80
2012,08,15,10,09,23.80
2012,08,15,10,10,23.80
2012,08,15,10,11,23.90
2012,08,15,10,12,23.90
2012,08,15,10,13,23.90
2012,08,15,10,14,23.90
2012,08,15,10,15,24.00
2012,08,15,10,16,24.00
2012,08,15,10,17,24.10
2012,08,15,10,18,24.10
2012,08,15,10,19,24.10
2012,08,15,10,20,24.20
2012,08,15,10,21,24.20
2012,08,15,10,22,24.30
2012,08,15,10,23,24.30
2012,08,15,10,24,24.30
2012,08,15,10,25,24.30
2012,08,15,10,26,24.40
2012,08,15,10,27,24.40
2012,08,15,10,28,24.40
2012,08,15,10,29,24.30
2012,08,15,10,30,24.40
2012,08,15,10,31,24.40
2012,08,15,10,32,24.40
2012,08,15,10,33,24.50
2012,08,15,10,34,24.60
2012,08,15,10,35,24.60
2012,08,15,10,36,24.70
2012,08,15,10,37,24.60
2012,08,15,10,38,24.60
2012,08,15,10,39,24.70
2012,08,15,10,40,24.70
2012,08,15,10,41,24.80
2012,08,15,10,42,24.80
2012,08,15,10,43,24.90
2012,08,15,10,44,25.00
2012,08,15,10,45,25.00
2012,08,15,10,46,25.00
2012,08,15,10,47,25.00
2012,08,15,10,48,25.00
2012,08,15,10,49,25.00
2012,08,15,10,50,25.00
2012,08,15,10,51,25.00
2012,08,15,10,52,25.10
2012,08,15,10,53,25.10
2012,08,15,10,54,25.20
2012,08,15,10,55,25.30
2012,08,15,10,56,25.30
2012,08,15,10,57,25.40
2012,08,15,10,58,25.50
2012,08,15,10,59,25.50
2012,08,15,11,00,25.50
2012,08,15,11,01,25.50
2012,08,15,11,02,25.50
2012,08,15,11,03,25.50
2012,08,15,11,04,25.60
2012,08,15,11,05,25.60
2012,08,15,11,06,25.50
2012,08,15,11,07,25.60
2012,08,15,11,08,25.60
2012,08,15,11,09,25.60
2012,08,15,11,10,25.70
2012,08,15,11,11,25.80
2012,08,15,11,12,25.90
2012,08,15,11,13,26.00
2012,08,15,11,14,26.00
2012,08,15,11,15,26.10
2012,08,15,11,16,26.20
2012,08,15,11,17,26.30
2012,08,15,11,18,26.20
2012,08,15,11,19,26.20
2012,08,15,11,20,26.20
2012,08,15,11,21,26.10
2012,08,15,11,22,26.00
2012,08,15,11,23,26.00
2012,08,15,11,24,26.00
2012,08,15,11,25,25.90
2012,08,15,11,26,25.90
2012,08,15,11,27,25.90
2012,08,15,11,28,26.00
2012,08,15,11,29,26.00
2012,08,15,11,30,26.00
2012,08,15,11,31,25.90
2012,08,15,11,32,25.90
2012,08,15,11,33,25.90
2012,08,15,11,34,25.90
2012,08,15,11,35,25.90
2012,08,15,11,36,25.80
2012,08,15,11,37,25.70
2012,08,15,11,38,25.70
2012,08,15,11,39,25.70
2012,08,15,11,40,25.80
2012,08,15,11,41,25.90
2012,08,15,11,42,25.90
2012,08,15,11,43,25.90
2012,08,15,11,44,26.00
2012,08,15,11,45,26.10
2012,08,15,11,46,26.10
2012,08,15,11,47,26.10
2012,08,15,11,48,26.00
2012,08,15,11,49,26.00
2012,08,15,11,50,26.00
2012,08,15,11,51,26.00
2012,08,15,11,52,26.00
2012,08,15,11,53,26.10
2012,08,15,11,54,26.20
2012,08,15,11,55,26.20
2012,08,15,11,56,26.20
2012,08,15,11,57,26.20
2012,08,15,11,58,26.20
2012,08,15,11,59,26.30
2012,08,15,12,00,26.30
2012,08,15,12,01,26.30
2012,08,15,12,02,26.30
2012,08,15,12,03,26.30
2012,08,15,12,04,26.30
2012,08,15,12,05,26.30
2012,08,15,12,06,26.30
2012,08,15,12,07,26.40
2012,08,15,12,08,26.40
2012,08,15,12,09,26.40
2012,08,15,12,10,26.30
2012,08,15,12,11,26.30
2012,08,15,12,12,26.30
2012,08,15,12,13,26.40
2012,08,15,12,14,26.50
2012,08,15,12,15,26.50
2012,08,15,12,16,26.50
2012,08,15,12,17,26.60
2012,08,15,12,18,26.60
2012,08,15,12,19,26.70
2012,08,15,12,20,26.60
2012,08,15,12,21,26.60
2012,08,15,12,22,26.60
2012,08,15,12,23,26.60
2012,08,15,12,24,26.60
2012,08,15,12,25,26.60
2012,08,15,12,26,26.60
2012,08,15,12,27,26.60
2012,08,15,12,28,26.50
2012,08,15,12,29,26.40
2012,08,15,12,30,26.50
2012,08,15,12,31,26.50
2012,08,15,12,32,26.60
2012,08,15,12,33,26.60
2012,08,15,12,34,26.70
2012,08,15,12,35,26.70
2012,08,15,12,36,26.70
2012,08,15,12,37,26.70
2012,08,15,12,38,26.70
2012,08,15,12,39,26.80
2012,08,15,12,40,26.80
2012,08,15,12,41,26.90
2012,08,15,12,42,27.00
2012,08,15,12,43,27.20
2012,08,15,12,44,27.20
2012,08,15,12,45,27.20
2012,08,15,12,46,27.20
2012,08,15,12,47,27.30
2012,08,15,12,48,27.30
2012,08,15,12,49,27.20
2012,08,15,12,50,27.20
2012,08,15,12,51,27.10
2012,08,15,12,52,27.10
2012,08,15,12,53,27.10
2012,08,15,12,54,27.20
2012,08,15,12,55,27.30
2012,08,15,12,56,27.40
2012,08,15,12,57,27.50
2012,08,15,12,58,27.50
2012,08,15,12,59,27.50
2012,08,15,13,00,27.40
2012,08,15,13,01,27.30
2012,08,15,13,02,27.30
2012,08,15,13,03,27.30
2012,08,15,13,04,27.40
2012,08,15,13,05,27.50
2012,08,15,13,06,27.60
2012,08,15,13,07,27.70
2012,08,15,13,08,27.70
2012,08,15,13,09,27.70
2012,08,15,13,10,27.80
2012,08,15,13,11,27.80
2012,08,15,13,12,27.80
2012,08,15,13,13,27.80
2012,08,15,13,14,27.90
2012,08,15,13,15,27.80
2012,08,15,13,16,27.80
2012,08,15,13,17,27.80
2012,08,15,13,18,27.70
2012,08,15,13,19,27.60
2012,08,15,13,20,27.60
2012,08,15,13,21,27.70
2012,08,15,13,22,27.70
2012,08,15,13,23,27.80
2012,08,15,13,24,27.90
2012,08,15,13,25,28.00
2012,08,15,13,26,28.10
2012,08,15,13,27,28.20
2012,08,15,13,28,28.20
2012,08,15,13,29,28.30
2012,08,15,13,30,28.30
2012,08,15,13,31,28.40
2012,08,15,13,32,28.50
2012,08,15,13,33,28.60
2012,08,15,13,34,28.70
2012,08,15,13,35,28.70
2012,08,15,13,36,28.70
2012,08,15,13,37,28.70
2012,08,15,13,38,28.70
2012,08,15,13,39,28.70
2012,08,15,13,40,28.60
2012,08,15,13,41,28.50
2012,08,15,13,42,28.40
2012,08,15,13,43,28.40
2012,08,15,13,44,28.40
2012,08,15,13,45,28.40
2012,08,15,13,46,28.30
2012,08,15,13,47,28.30
2012,08,15,13,48,28.30
2012,08,15,13,49,28.40
2012,08,15,13,50,28.40
2012,08,15,13,51,28.50
2012,08,15,13,52,28.50
2012,08,15,13,53,28.50
2012,08,15,13,54,28.40
2012,08,15,13,55,28.40
2012,08,15,13,56,28.30
2012,08,15,13,57,28.30
2012,08,15,13,58,28.30
2012,08,15,13,59,28.20
2012,08,15,14,00,28.10
2012,08,15,14,01,28.10
2012,08,15,14,02,28.10
2012,08,15,14,03,28.20
2012,08,15,14,04,28.20
2012,08,15,14,05,28.10
2012,08,15,14,06,28.00
2012,08,15,14,07,28.00
2012,08,15,14,08,27.90
2012,08,15,14,09,27.90
2012,08,15,14,10,27.90
2012,08,15,14,11,27.90
2012,08,15,14,12,28.00
2012,08,15,14,13,28.00
2012,08,15,14,14,28.00
2012,08,15,14,15,28.00
2012,08,15,14,16,28.10
2012,08,15,14,17,28.10
2012,08,15,14,18,28.20
2012,08,15,14,19,28.20
2012,08,15,14,20,28.30
2012,08,15,14,21,28.20
2012,08,15,14,22,28.30
2012,08,15,14,23,28.30
2012,08,15,14,24,28.30
2012,08,15,14,25,28.40
2012,08,15,14,26,28.50
2012,08,15,14,27,28.50
2012,08,15,14,28,28.50
2012,08,15,14,29,28.60
2012,08,15,14,30,28.60
2012,08,15,14,31,28.50
2012,08,15,14,32,28.50
2012,08,15,14,33,28.50
2012,08,15,14,34,28.50
2012,08,15,14,35,28.50
2012,08,15,14,36,28.60
2012,08,15,14,37,28.60
2012,08,15,14,38,28.50
2012,08,15,14,39,28.50
2012,08,15,14,40,28.50
2012,08,15,14,41,28.50
2012,08,15,14,42,28.50
2012,08,15,14,43,28.50
2012,08,15,14,44,28.40
2012,08,15,14,45,28.40
2012,08,15,14,46,28.40
2012,08,15,14,47,28.40
2012,08,15,14,48,28.40
2012,08,15,14,49,28.50
2012,08,15,14,50,28.50
2012,08,15,14,51,28.60
2012,08,15,14,52,28.70
2012,08,15,14,53,28.70
2012,08,15,14,54,28.70
2012,08,15,14,55,28.70
2012,08,15,14,56,28.70
2012,08,15,14,57,28.70
2012,08,15,14,58,28.70
2012,08,15,14,59,28.70
2012,08,15,15,00,28.70
2012,08,15,15,01,28.80
2012,08,15,15,02,28.80
2012,08,15,15,03,28.80
2012,08,15,15,04,28.80
2012,08,15,15,05,28.80
2012,08,15,15,06,28.80
2012,08,15,15,07,28.80
2012,08,15,15,08,28.80
2012,08,15,15,09,28.80
2012,08,15,15,10,28.80
2012,08,15,15,11,28.80
2012,08,15,15,12,28.80
2012,08,15,15,13,28.90
2012,08,15,15,14,28.90
2012,08,15,15,15,28.80
2012,08,15,15,16,28.80
2012,08,15,15,17,28.90
2012,08,15,15,18,29.00
2012,08,15,15,19,29.00
2012,08,15,15,20,29.00
2012,08,15,15,21,28.90
2012,08,15,15,22,28.90
2012,08,15,15,23,28.90
2012,08,15,15,24,29.00
2012,08,15,15,25,29.00
2012,08,15,15,26,29.00
2012,08,15,15,27,29.00
2012,08,15,15,28,29.00
2012,08,15,15,29,29.10
2012,08,15,15,30,29.10
2012,08,15,15,31,29.10
2012,08,15,15,32,29.20
2012,08,15,15,33,29.20
2012,08,15,15,34,29.20
2012,08,15,15,35,29.20
2012,08,15,15,36,29.20
2012,08,15,15,37,29.20
2012,08,15,15,38,29.20
2012,08,15,15,39,29.20
2012,08,15,15,40,29.20
2012,08,15,15,41,29.20
2012,08,15,15,42,29.20
2012,08,15,15,43,29.20
2012,08,15,15,44,29.20
2012,08,15,15,45,29.20
2012,08,15,15,46,29.20
2012,08,15,15,47,29.20
2012,08,15,15,48,29.20
2012,08,15,15,49,29.20
2012,08,15,15,50,29.20
2012,08,15,15,51,29.30
2012,08,15,15,52,29.20
2012,08,15,15,53,29.20
2012,08,15,15,54,29.20
2012,08,15,15,55,29.20
2012,08,15,15,56,29.10
2012,08,15,15,57,29.10
2012,08,15,15,58,29.00
2012,08,15,15,59,29.00
2012,08,15,16,00,29.00
2012,08,15,16,01,29.00
2012,08,15,16,02,29.00
2012,08,15,16,03,29.10
2012,08,15,16,04,29.10
2012,08,15,16,05,29.10
2012,08,15,16,06,29.20
2012,08,15,16,07,29.20
2012,08,15,16,08,29.20
2012,08,15,16,09,29.30
2012,08,15,16,10,29.20
2012,08,15,16,11,29.20
2012,08,15,16,12,29.20
2012,08,15,16,13,29.20
2012,08,15,16,14,29.10
2012,08,15,16,15,29.10
2012,08,15,16,16,29.10
2012,08,15,16,17,29.10
2012,08,15,16,18,29.10
2012,08,15,16,19,29.00
2012,08,15,16,20,28.90
2012,08,15,16,21,28.90
2012,08,15,16,22,28.80
2012,08,15,16,23,28.80
2012,08,15,16,24,28.80
2012,08,15,16,25,28.90
2012,08,15,16,26,28.90
2012,08,15,16,27,29.00
2012,08,15,16,28,28.90
2012,08,15,16,29,28.90
2012,08,15,16,30,28.90
2012,08,15,16,31,29.00
2012,08,15,16,32,29.00
2012,08,15,16,33,29.00
2012,08,15,16,34,29.10
2012,08,15,16,35,29.10
2012,08,15,16,36,29.10
2012,08,15,16,37,29.10
2012,08,15,16,38,29.10
2012,08,15,16,39,29.20
2012,08,15,16,40,29.20
2012,08,15,16,41,29.20
2012,08,15,16,42,29.20
2012,08,15,16,43,29.20
2012,08,15,16,44,29.20
2012,08,15,16,45,29.20
2012,08,15,16,46,29.20
2012,08,15,16,47,29.20
2012,08,15,16,48,29.10
2012,08,15,16,49,29.10
2012,08,15,16,50,29.10
2012,08,15,16,51,29.10
2012,08,15,16,52,29.10
2012,08,15,16,53,29.10
2012,08,15,16,54,29.00
2012,08,15,16,55,29.00
2012,08,15,16,56,29.00
2012,08,15,16,57,29.00
2012,08,15,16,58,29.00
2012,08,15,16,59,29.00
2012,08,15,17,00,28.90
2012,08,15,17,01,28.90
2012,08,15,17,02,28.90
2012,08,15,17,03,28.90
2012,08,15,17,04,28.90
2012,08,15,17,05,28.90
2012,08,15,17,06,28.90
2012,08,15,17,07,28.90
2012,08,15,17,08,28.90
2012,08,15,17,09,28.80
2012,08,15,17,10,28.80
2012,08,15,17,11,28.80
2012,08,15,17,12,28.90
2012,08,15,17,13,28.90
2012,08,15,17,14,28.90
2012,08,15,17,15,28.80
2012,08,15,17,16,28.80
2012,08,15,17,17,28.80
2012,08,15,17,18,28.80
2012,08,15,17,19,28.80